Wetterdaten: Donnerstag, 15.01.2015
Datum Zeit Temp. A. Mod.Schuppen Waschkche Feuchte A. Luftdruck Regen Wind Richtung Richtung Sonnenschein Helligkeit Solar
15.01.2015 00:04 3,8 C 1,8 C 6,9 C 79 % 1011,1 hPa 0,0 l/m 23,0 km/h (4 Bft) S-SO22.5 160 0 min 0 lux 0 W/m
15.01.2015 00:08 3,8 C 1,7 C 6,9 C 78 % 1011,1 hPa 0,0 l/m 25,6 km/h (4 Bft) S-SO22.5 150 0 min 0 lux 0 W/m
15.01.2015 00:13 3,8 C 1,9 C 6,9 C 79 % 1011,1 hPa 0,0 l/m 25,6 km/h (4 Bft) S-SO22.5 150 0 min 0 lux 0 W/m
15.01.2015 00:19 3,8 C 2,0 C 6,9 C 79 % 1011,1 hPa 0,0 l/m 19,7 km/h (3 Bft) S-SO22.5 165 0 min 0 lux 0 W/m
15.01.2015 00:24 3,8 C 2,3 C 6,9 C 79 % 1011,1 hPa 0,0 l/m 25,8 km/h (4 Bft) S45 170 0 min 0 lux 0 W/m
15.01.2015 00:29 3,8 C 2,5 C 6,9 C 79 % 1011,1 hPa 0,0 l/m 24,5 km/h (4 Bft) S-SO22.5 165 0 min 0 lux 0 W/m
15.01.2015 00:34 3,8 C 2,5 C 6,9 C 79 % 1010,1 hPa 0,0 l/m 25,1 km/h (4 Bft) S-SO22.5 165 0 min 0 lux 0 W/m
15.01.2015 00:39 3,8 C 2,4 C 6,9 C 79 % 1010,1 hPa 0,0 l/m 24,1 km/h (4 Bft) S22.5 170 0 min 0 lux 0 W/m
15.01.2015 00:43 3,9 C 2,5 C 6,9 C 79 % 1010,1 hPa 0,0 l/m 27,6 km/h (5 Bft) S-SO45 165 0 min 0 lux 0 W/m
15.01.2015 00:48 3,9 C 2,7 C 6,9 C 78 % 1010,1 hPa 0,0 l/m 25,8 km/h (4 Bft) S-SO45 165 0 min 0 lux 0 W/m
15.01.2015 00:54 4,0 C 2,7 C 6,8 C 78 % 1010,1 hPa 0,0 l/m 28,6 km/h (5 Bft) S-SO45 155 0 min 0 lux 0 W/m
15.01.2015 00:59 4,0 C 2,7 C 6,8 C 78 % 1010,1 hPa 0,0 l/m 31,9 km/h (5 Bft) S-SO45 165 0 min 0 lux 0 W/m
15.01.2015 01:04 4,1 C 2,6 C 6,8 C 78 % 1009,1 hPa 0,0 l/m 25,4 km/h (4 Bft) S-SO45 165 0 min 0 lux 0 W/m
15.01.2015 01:09 4,1 C 2,6 C 6,8 C 78 % 1009,1 hPa 0,0 l/m 25,4 km/h (4 Bft) S-SO45 165 0 min 0 lux 0 W/m
15.01.2015 01:13 4,1 C 2,5 C 6,8 C 78 % 1009,1 hPa 0,0 l/m 20,5 km/h (4 Bft) S45 170 0 min 0 lux 0 W/m
15.01.2015 01:18 4,1 C 2,5 C 6,8 C 78 % 1009,1 hPa 0,0 l/m 28,4 km/h (5 Bft) S45 170 0 min 0 lux 0 W/m
15.01.2015 01:24 4,2 C 2,5 C 6,8 C 78 % 1009,1 hPa 0,0 l/m 28,7 km/h (5 Bft) S-SO45 160 0 min 0 lux 0 W/m
15.01.2015 01:29 4,2 C 2,8 C 6,8 C 78 % 1009,1 hPa 0,0 l/m 29,1 km/h (5 Bft) S-SO45 160 0 min 0 lux 0 W/m
15.01.2015 01:34 4,3 C 3,0 C 6,8 C 77 % 1008,1 hPa 0,0 l/m 24,4 km/h (4 Bft) S-SO45 165 0 min 0 lux 0 W/m
15.01.2015 01:39 4,4 C 3,1 C 6,8 C 77 % 1008,1 hPa 0,0 l/m 24,9 km/h (4 Bft) S-SO22.5 160 0 min 0 lux 0 W/m
15.01.2015 01:44 4,4 C 3,2 C 6,8 C 77 % 1008,1 hPa 0,0 l/m 32,4 km/h (5 Bft) S45 170 0 min 0 lux 0 W/m
15.01.2015 01:49 4,5 C 3,3 C 6,8 C 77 % 1008,1 hPa 0,0 l/m 28,6 km/h (5 Bft) S-SO45 165 0 min 0 lux 0 W/m
15.01.2015 01:53 4,5 C 3,3 C 6,8 C 77 % 1008,1 hPa 0,0 l/m 32,2 km/h (5 Bft) S-SO45 165 0 min 0 lux 0 W/m
15.01.2015 01:58 4,6 C 3,3 C 6,8 C 78 % 1008,1 hPa 0,0 l/m 30,8 km/h (5 Bft) S-SO45 160 0 min 0 lux 0 W/m
15.01.2015 02:04 4,6 C 3,4 C 6,8 C 78 % 1007,1 hPa 0,0 l/m 28,0 km/h (5 Bft) S45 170 0 min 0 lux 0 W/m
15.01.2015 02:09 4,7 C 3,6 C 6,8 C 78 % 1007,1 hPa 0,0 l/m 31,3 km/h (5 Bft) S67.5 170 0 min 0 lux 0 W/m
15.01.2015 02:14 4,6 C 3,6 C 6,8 C 78 % 1007,1 hPa 0,0 l/m 31,3 km/h (5 Bft) S67.5 170 0 min 0 lux 0 W/m
15.01.2015 02:19 4,6 C 3,4 C 6,8 C 78 % 1007,1 hPa 0,0 l/m 30,5 km/h (5 Bft) S-SO45 160 0 min 0 lux 0 W/m
15.01.2015 02:23 4,6 C 3,5 C 6,8 C 78 % 1007,1 hPa 0,0 l/m 31,5 km/h (5 Bft) S-SO45 165 0 min 0 lux 0 W/m
15.01.2015 02:28 4,6 C 3,5 C 6,8 C 78 % 1007,1 hPa 0,0 l/m 31,8 km/h (5 Bft) S-SO22.5 165 0 min 0 lux 0 W/m
15.01.2015 02:34 4,6 C 3,6 C 6,8 C 78 % 1007,1 hPa 0,0 l/m 31,1 km/h (5 Bft) S45 170 0 min 0 lux 0 W/m
15.01.2015 02:39 4,6 C 3,7 C 6,8 C 78 % 1007,1 hPa 0,0 l/m 30,5 km/h (5 Bft) S-SO22.5 165 0 min 0 lux 0 W/m
15.01.2015 02:44 4,7 C 3,7 C 6,8 C 78 % 1007,1 hPa 0,0 l/m 29,8 km/h (5 Bft) S-SO22.5 160 0 min 0 lux 0 W/m
15.01.2015 02:49 4,7 C 3,7 C 6,8 C 78 % 1006,1 hPa 0,0 l/m 30,8 km/h (5 Bft) S-SO45 160 0 min 0 lux 0 W/m
15.01.2015 02:54 4,7 C 3,7 C 6,8 C 78 % 1006,1 hPa 0,0 l/m 34,4 km/h (5 Bft) S-SO45 165 0 min 0 lux 0 W/m
15.01.2015 02:58 4,7 C 3,9 C 6,8 C 79 % 1006,1 hPa 0,0 l/m 25,5 km/h (4 Bft) S-SO45 165 0 min 0 lux 0 W/m
15.01.2015 03:04 4,8 C 3,9 C 6,8 C 79 % 1006,1 hPa 0,0 l/m 27,9 km/h (5 Bft) S45 180 0 min 0 lux 0 W/m
15.01.2015 03:09 4,8 C 4,0 C 6,8 C 79 % 1006,1 hPa 0,0 l/m 26,5 km/h (4 Bft) S-SO45 165 0 min 0 lux 0 W/m
15.01.2015 03:14 4,9 C 4,1 C 6,8 C 80 % 1006,1 hPa 0,0 l/m 34,6 km/h (5 Bft) S-SO45 165 0 min 0 lux 0 W/m
15.01.2015 03:19 4,9 C 4,0 C 6,8 C 80 % 1006,1 hPa 0,0 l/m 34,6 km/h (5 Bft) S-SO45 165 0 min 0 lux 0 W/m
15.01.2015 03:24 4,9 C 3,9 C 6,8 C 80 % 1005,1 hPa 0,0 l/m 20,6 km/h (4 Bft) S-SO45 165 0 min 0 lux 0 W/m
15.01.2015 03:28 4,9 C 3,9 C 6,8 C 80 % 1005,1 hPa 0,0 l/m 27,0 km/h (5 Bft) S22.5 170 0 min 0 lux 0 W/m
15.01.2015 03:33 4,9 C 3,9 C 6,8 C 81 % 1005,1 hPa 0,0 l/m 27,6 km/h (5 Bft) S-SO22.5 160 0 min 0 lux 0 W/m
15.01.2015 03:39 4,9 C 3,9 C 6,8 C 81 % 1005,1 hPa 0,0 l/m 27,0 km/h (5 Bft) S-SO45 165 0 min 0 lux 0 W/m
15.01.2015 03:44 4,9 C 4,0 C 6,8 C 81 % 1005,1 hPa 0,0 l/m 27,0 km/h (5 Bft) S-SO45 165 0 min 0 lux 0 W/m
15.01.2015 03:49 4,9 C 4,1 C 6,8 C 82 % 1005,1 hPa 0,0 l/m 27,0 km/h (5 Bft) S-SO22.5 165 0 min 0 lux 0 W/m
15.01.2015 03:54 4,9 C 4,1 C 6,8 C 83 % 1005,1 hPa 0,0 l/m 21,0 km/h (4 Bft) S-SO45 160 0 min 0 lux 0 W/m
15.01.2015 03:59 4,9 C 4,1 C 6,8 C 83 % 1005,1 hPa 0,0 l/m 23,9 km/h (4 Bft) S-SO45 165 0 min 0 lux 0 W/m
15.01.2015 04:03 5,1 C 4,1 C 6,9 C 83 % 1004,0 hPa 0,0 l/m 25,3 km/h (4 Bft) S45 170 0 min 0 lux 0 W/m
15.01.2015 04:09 5,1 C 4,2 C 6,9 C 84 % 1004,0 hPa 0,0 l/m 24,3 km/h (4 Bft) S-SO45 165 0 min 0 lux 0 W/m
15.01.2015 04:14 5,1 C 4,2 C 6,9 C 84 % 1004,0 hPa 0,0 l/m 23,7 km/h (4 Bft) S22.5 170 0 min 0 lux 0 W/m
15.01.2015 04:19 5,1 C 4,3 C 6,9 C 84 % 1004,0 hPa 0,4 l/m 23,1 km/h (4 Bft) S-SO22.5 155 0 min 0 lux 0 W/m
15.01.2015 04:24 5,2 C 4,4 C 6,9 C 85 % 1004,0 hPa 0,0 l/m 20,7 km/h (4 Bft) S-SO22.5 165 0 min 0 lux 0 W/m
15.01.2015 04:29 5,3 C 4,4 C 6,9 C 85 % 1004,0 hPa 0,0 l/m 23,5 km/h (4 Bft) S-SO22.5 160 0 min 0 lux 0 W/m
15.01.2015 04:33 5,6 C 4,8 C 6,9 C 85 % 1004,0 hPa 0,0 l/m 36,1 km/h (5 Bft) S-SO22.5 165 0 min 0 lux 0 W/m
15.01.2015 04:38 5,8 C 4,9 C 6,9 C 85 % 1004,0 hPa 0,0 l/m 30,4 km/h (5 Bft) S45 175 0 min 0 lux 0 W/m
15.01.2015 04:44 5,8 C 5,1 C 6,9 C 85 % 1003,0 hPa 0,0 l/m 30,4 km/h (5 Bft) S45 175 0 min 0 lux 0 W/m
15.01.2015 04:49 6,0 C 5,2 C 6,9 C 85 % 1003,0 hPa 0,0 l/m 33,8 km/h (5 Bft) S-SO22.5 165 0 min 0 lux 0 W/m
15.01.2015 04:54 6,0 C 5,2 C 6,9 C 85 % 1003,0 hPa 0,0 l/m 28,1 km/h (5 Bft) S22.5 170 0 min 0 lux 0 W/m
15.01.2015 04:59 6,0 C 5,2 C 7,0 C 85 % 1003,0 hPa 0,0 l/m 30,5 km/h (5 Bft) S-SO22.5 165 0 min 0 lux 0 W/m
15.01.2015 05:03 6,0 C 5,3 C 7,0 C 85 % 1003,0 hPa 0,0 l/m 29,6 km/h (5 Bft) S-SO45 165 0 min 0 lux 0 W/m
15.01.2015 05:08 6,0 C 5,3 C 7,0 C 85 % 1003,0 hPa 0,4 l/m 29,6 km/h (5 Bft) S-SO45 165 0 min 0 lux 0 W/m
15.01.2015 05:14 6,0 C 5,3 C 7,0 C 85 % 1003,0 hPa 0,0 l/m 29,3 km/h (5 Bft) S22.5 175 0 min 0 lux 0 W/m
15.01.2015 05:19 6,1 C 5,4 C 7,0 C 86 % 1003,0 hPa 0,0 l/m 34,4 km/h (5 Bft) S22.5 170 0 min 0 lux 0 W/m
15.01.2015 05:24 6,1 C 5,4 C 7,0 C 86 % 1002,0 hPa 0,0 l/m 31,8 km/h (5 Bft) S-SO22.5 165 0 min 0 lux 0 W/m
15.01.2015 05:29 6,1 C 5,4 C 7,0 C 86 % 1002,0 hPa 0,0 l/m 31,8 km/h (5 Bft) S-SO22.5 165 0 min 0 lux 0 W/m
15.01.2015 05:34 6,1 C 5,4 C 7,0 C 86 % 1002,0 hPa 0,0 l/m 31,1 km/h (5 Bft) S22.5 170 0 min 0 lux 0 W/m
15.01.2015 05:39 6,1 C 5,5 C 7,0 C 86 % 1002,0 hPa 0,4 l/m 29,1 km/h (5 Bft) S45 175 0 min 0 lux 0 W/m
15.01.2015 05:43 6,2 C 5,5 C 7,0 C 86 % 1002,0 hPa 0,0 l/m 33,2 km/h (5 Bft) S45 170 0 min 0 lux 0 W/m
15.01.2015 05:48 6,2 C 5,5 C 7,1 C 86 % 1002,0 hPa 0,0 l/m 32,5 km/h (5 Bft) S45 175 0 min 0 lux 0 W/m
15.01.2015 05:54 6,2 C 5,5 C 7,1 C 86 % 1002,0 hPa 0,0 l/m 31,1 km/h (5 Bft) S-SO45 165 0 min 0 lux 0 W/m
15.01.2015 05:59 6,3 C 5,5 C 7,1 C 86 % 1002,0 hPa 0,0 l/m 29,6 km/h (5 Bft) S22.5 170 0 min 0 lux 0 W/m
15.01.2015 06:04 6,4 C 5,6 C 7,1 C 86 % 1002,0 hPa 0,0 l/m 33,0 km/h (5 Bft) S22.5 170 0 min 0 lux 0 W/m
15.01.2015 06:09 6,4 C 5,6 C 7,1 C 86 % 1001,0 hPa 0,0 l/m 29,7 km/h (5 Bft) S45 175 0 min 0 lux 0 W/m
15.01.2015 06:13 6,4 C 5,6 C 7,1 C 86 % 1001,0 hPa 0,0 l/m 35,6 km/h (5 Bft) S22.5 170 0 min 0 lux 0 W/m
15.01.2015 06:19 6,5 C 5,7 C 7,1 C 85 % 1001,0 hPa 0,0 l/m 35,6 km/h (5 Bft) S22.5 170 0 min 0 lux 0 W/m
15.01.2015 06:24 6,5 C 5,7 C 7,1 C 85 % 1001,0 hPa 0,0 l/m 34,8 km/h (5 Bft) S45 170 0 min 0 lux 0 W/m
15.01.2015 06:29 6,6 C 5,7 C 7,1 C 85 % 1001,0 hPa 0,0 l/m 34,8 km/h (5 Bft) S45 170 0 min 0 lux 0 W/m
15.01.2015 06:34 6,8 C 5,8 C 7,1 C 85 % 1001,0 hPa 0,0 l/m 34,8 km/h (5 Bft) S45 170 0 min 0 lux 0 W/m
15.01.2015 06:39 6,8 C 5,9 C 7,1 C 84 % 1001,0 hPa 0,0 l/m 24,1 km/h (4 Bft) S45 175 0 min 0 lux 0 W/m
15.01.2015 06:44 7,0 C 6,0 C 7,1 C 84 % 1001,0 hPa 0,0 l/m 24,2 km/h (4 Bft) S22.5 170 0 min 0 lux 0 W/m
15.01.2015 06:48 7,2 C 6,1 C 7,1 C 83 % 1001,0 hPa 0,0 l/m 24,2 km/h (4 Bft) S22.5 170 0 min 0 lux 0 W/m
15.01.2015 06:53 7,2 C 6,2 C 7,2 C 83 % 1001,0 hPa 0,0 l/m 32,2 km/h (5 Bft) S22.5 180 0 min 0 lux 0 W/m
15.01.2015 06:59 7,3 C 6,2 C 7,2 C 83 % 1001,0 hPa 0,0 l/m 32,0 km/h (5 Bft) S22.5 180 0 min 0 lux 0 W/m
15.01.2015 07:04 7,5 C 6,3 C 7,2 C 82 % 1001,0 hPa 0,0 l/m 32,0 km/h (5 Bft) S22.5 180 0 min 0 lux 0 W/m
15.01.2015 07:09 7,6 C 6,4 C 7,2 C 82 % 1001,0 hPa 0,0 l/m 31,0 km/h (5 Bft) S22.5 175 0 min 0 lux 0 W/m
15.01.2015 07:14 7,6 C 6,4 C 7,2 C 82 % 1001,0 hPa 0,0 l/m 27,2 km/h (5 Bft) S22.5 180 0 min 0 lux 0 W/m
15.01.2015 07:18 7,6 C 6,5 C 7,2 C 81 % 1000,0 hPa 0,0 l/m 27,2 km/h (5 Bft) S22.5 180 0 min 0 lux 0 W/m
15.01.2015 07:23 7,7 C 6,5 C 7,2 C 81 % 1000,0 hPa 0,0 l/m 27,2 km/h (5 Bft) S22.5 180 0 min 0 lux 0 W/m
15.01.2015 07:29 7,7 C 6,5 C 7,2 C 81 % 1000,0 hPa 0,0 l/m 25,6 km/h (4 Bft) S22.5 180 0 min 0 lux 0 W/m
15.01.2015 07:34 7,8 C 6,7 C 7,2 C 81 % 1000,0 hPa 0,0 l/m 31,2 km/h (5 Bft) S22.5 180 0 min 0 lux 0 W/m
15.01.2015 07:39 7,8 C 6,7 C 7,3 C 81 % 1000,0 hPa 0,0 l/m 28,5 km/h (5 Bft) S22.5 175 0 min 0 lux 0 W/m
15.01.2015 07:44 7,8 C 6,7 C 7,3 C 81 % 1000,0 hPa 0,0 l/m 28,7 km/h (5 Bft) S22.5 185 0 min 0 lux 0 W/m
15.01.2015 07:49 7,8 C 6,7 C 7,3 C 81 % 1000,0 hPa 0,4 l/m 27,0 km/h (5 Bft) S22.5 180 0 min 0 lux 0 W/m
15.01.2015 07:53 7,8 C 6,7 C 7,3 C 81 % 1000,0 hPa 0,0 l/m 34,0 km/h (5 Bft) S22.5 180 0 min 0 lux 0 W/m
15.01.2015 07:58 8,0 C 6,8 C 7,3 C 81 % 1000,0 hPa 0,0 l/m 31,8 km/h (5 Bft) S45 180 0 min 0 lux 0 W/m
15.01.2015 08:04 8,0 C 6,9 C 7,3 C 81 % 1000,0 hPa 0,0 l/m 33,5 km/h (5 Bft) S22.5 180 0 min 0 lux 0 W/m
15.01.2015 08:09 8,1 C 6,9 C 7,3 C 80 % 1000,0 hPa 0,0 l/m 26,9 km/h (4 Bft) S45 175 0 min 0 lux 0 W/m
15.01.2015 08:14 8,2 C 7,0 C 7,3 C 80 % 1000,0 hPa 0,0 l/m 32,1 km/h (5 Bft) S22.5 180 0 min 0 lux 0 W/m
15.01.2015 08:19 8,1 C 7,0 C 7,4 C 80 % 1000,0 hPa 0,0 l/m 27,6 km/h (5 Bft) S22.5 175 0 min 0 lux 0 W/m
15.01.2015 08:23 8,2 C 7,0 C 7,4 C 80 % 1000,0 hPa 0,0 l/m 27,9 km/h (5 Bft) S22.5 180 0 min 0 lux 0 W/m
15.01.2015 08:28 8,4 C 7,1 C 7,4 C 80 % 1000,0 hPa 0,0 l/m 32,4 km/h (5 Bft) S22.5 185 0 min 36 lux 0 W/m
15.01.2015 08:34 8,4 C 7,2 C 7,4 C 80 % 1000,0 hPa 0,0 l/m 32,5 km/h (5 Bft) S45 185 0 min 61 lux 0 W/m
15.01.2015 08:39 8,4 C 7,2 C 7,4 C 80 % 1000,0 hPa 0,0 l/m 32,5 km/h (5 Bft) S45 185 0 min 82 lux 1 W/m
15.01.2015 08:44 8,6 C 7,3 C 7,5 C 80 % 1000,0 hPa 0,0 l/m 32,5 km/h (5 Bft) S45 185 0 min 82 lux 1 W/m
15.01.2015 08:49 8,6 C 7,3 C 7,5 C 80 % 1000,0 hPa 0,0 l/m 35,2 km/h (5 Bft) S22.5 180 0 min 204 lux 1 W/m
15.01.2015 08:54 8,7 C 7,4 C 7,5 C 79 % 1000,0 hPa 0,0 l/m 29,0 km/h (5 Bft) S22.5 185 0 min 297 lux 2 W/m
15.01.2015 08:58 8,7 C 7,4 C 7,5 C 79 % 1000,0 hPa 0,0 l/m 30,4 km/h (5 Bft) S45 185 0 min 406 lux 3 W/m
15.01.2015 09:04 8,8 C 7,4 C 7,5 C 78 % 1000,0 hPa 0,0 l/m 34,2 km/h (5 Bft) S22.5 185 0 min 406 lux 3 W/m
15.01.2015 09:09 8,8 C 7,4 C 7,5 C 78 % 1000,0 hPa 0,0 l/m 30,2 km/h (5 Bft) S45 175 0 min 563 lux 4 W/m
15.01.2015 09:14 9,0 C 7,5 C 7,6 C 77 % 1000,0 hPa 0,0 l/m 45,4 km/h (6 Bft) S22.5 190 0 min 690 lux 5 W/m
15.01.2015 09:19 9,2 C 7,8 C 7,6 C 76 % 999,9 hPa 0,0 l/m 29,8 km/h (5 Bft) S-SW45 195 0 min 892 lux 6 W/m
15.01.2015 09:24 9,2 C 7,9 C 7,6 C 76 % 999,9 hPa 0,0 l/m 29,0 km/h (5 Bft) S45 190 0 min 679 lux 5 W/m
15.01.2015 09:28 9,5 C 8,0 C 7,6 C 75 % 999,9 hPa 0,0 l/m 40,6 km/h (6 Bft) S-SW22.5 195 0 min 648 lux 4 W/m
15.01.2015 09:34 9,6 C 8,1 C 7,8 C 73 % 999,9 hPa 0,0 l/m 33,5 km/h (5 Bft) S-SW67.5 195 0 min 910 lux 6 W/m
15.01.2015 09:39 9,6 C 8,1 C 7,8 C 73 % 999,9 hPa 0,0 l/m 41,0 km/h (6 Bft) S-SW22.5 195 0 min 1,13 klux 8 W/m
15.01.2015 09:44 9,6 C 8,2 C 7,9 C 73 % 999,9 hPa 0,0 l/m 38,6 km/h (6 Bft) S-SW45 195 0 min 1,17 klux 8 W/m
15.01.2015 09:49 9,6 C 8,2 C 7,9 C 74 % 999,9 hPa 0,0 l/m 34,4 km/h (5 Bft) S22.5 185 0 min 1,72 klux 12 W/m
15.01.2015 09:54 9,6 C 8,2 C 8,0 C 74 % 999,9 hPa 0,0 l/m 39,4 km/h (6 Bft) S-SW45 195 0 min 1,67 klux 11 W/m
15.01.2015 09:59 9,6 C 8,2 C 8,0 C 74 % 999,9 hPa 0,0 l/m 39,0 km/h (6 Bft) S45 185 0 min 2,09 klux 14 W/m
15.01.2015 10:04 9,6 C 8,3 C 8,0 C 73 % 998,9 hPa 0,0 l/m 37,8 km/h (5 Bft) S45 190 0 min 1,93 klux 13 W/m
15.01.2015 10:09 9,6 C 8,3 C 8,0 C 74 % 998,9 hPa 0,0 l/m 34,8 km/h (5 Bft) S-SW22.5 200 0 min 3,31 klux 23 W/m
15.01.2015 10:14 9,6 C 8,4 C 8,0 C 74 % 998,9 hPa 0,0 l/m 39,9 km/h (6 Bft) S22.5 185 0 min 3,22 klux 22 W/m
15.01.2015 10:19 9,6 C 8,4 C 8,1 C 74 % 998,9 hPa 0,0 l/m 40,7 km/h (6 Bft) S45 190 0 min 2,39 klux 16 W/m
15.01.2015 10:24 9,7 C 8,3 C 8,0 C 73 % 998,9 hPa 0,0 l/m 39,3 km/h (6 Bft) S45 190 0 min 2,14 klux 15 W/m
15.01.2015 10:28 9,7 C 8,5 C 8,1 C 73 % 998,9 hPa 0,0 l/m 32,2 km/h (5 Bft) S-SW22.5 195 0 min 2,90 klux 20 W/m
15.01.2015 10:34 9,8 C 8,5 C 8,1 C 73 % 998,9 hPa 0,0 l/m 43,4 km/h (6 Bft) S-SW22.5 210 0 min 3,23 klux 22 W/m
15.01.2015 10:39 9,8 C 8,6 C 8,1 C 72 % 998,9 hPa 0,0 l/m 35,7 km/h (5 Bft) S-SW22.5 200 0 min 4,95 klux 34 W/m
15.01.2015 10:44 9,9 C 8,8 C 8,1 C 72 % 998,9 hPa 0,0 l/m 44,7 km/h (6 Bft) S-SW45 200 0 min 4,96 klux 34 W/m
15.01.2015 10:49 10,0 C 8,8 C 8,1 C 71 % 998,9 hPa 0,0 l/m 37,7 km/h (5 Bft) S-SW45 195 0 min 4,07 klux 28 W/m
15.01.2015 10:54 10,1 C 9,0 C 8,1 C 70 % 998,9 hPa 0,0 l/m 37,7 km/h (5 Bft) S-SW45 195 0 min 5,04 klux 34 W/m
15.01.2015 10:59 10,3 C 9,8 C 8,1 C 70 % 998,9 hPa 0,0 l/m 42,1 km/h (6 Bft) S22.5 185 0 min 4,35 klux 30 W/m
15.01.2015 11:04 10,3 C 10,2 C 8,1 C 70 % 998,9 hPa 0,0 l/m 33,9 km/h (5 Bft) S22.5 180 0 min 3,98 klux 27 W/m
15.01.2015 11:09 10,3 C 10,0 C 8,1 C 70 % 998,9 hPa 0,0 l/m 35,3 km/h (5 Bft) S-SW45 200 0 min 4,09 klux 28 W/m
15.01.2015 11:14 10,3 C 9,7 C 8,1 C 70 % 998,9 hPa 0,0 l/m 35,3 km/h (5 Bft) S-SW45 200 0 min 4,30 klux 29 W/m
15.01.2015 11:19 10,4 C 9,3 C 8,1 C 70 % 998,9 hPa 0,0 l/m 48,4 km/h (6 Bft) S-SW45 195 0 min 4,36 klux 30 W/m
15.01.2015 11:24 10,3 C 9,2 C 8,1 C 71 % 998,9 hPa 0,0 l/m 41,4 km/h (6 Bft) S-SW45 205 0 min 4,09 klux 28 W/m
15.01.2015 11:28 10,2 C 9,1 C 8,1 C 71 % 998,9 hPa 0,0 l/m 40,8 km/h (6 Bft) S-SW45 205 0 min 3,43 klux 23 W/m
15.01.2015 11:33 10,2 C 9,0 C 8,1 C 71 % 998,9 hPa 0,0 l/m 40,8 km/h (6 Bft) S-SW45 205 0 min 3,19 klux 22 W/m
15.01.2015 11:39 10,1 C 8,9 C 8,1 C 72 % 998,9 hPa 0,0 l/m 37,2 km/h (5 Bft) S-SW45 210 0 min 3,52 klux 24 W/m
15.01.2015 11:44 10,0 C 8,9 C 8,1 C 72 % 998,9 hPa 0,0 l/m 38,3 km/h (6 Bft) S-SW45 205 0 min 4,92 klux 34 W/m
15.01.2015 11:49 10,0 C 9,0 C 8,1 C 73 % 998,9 hPa 0,0 l/m 37,9 km/h (6 Bft) S-SW45 195 0 min 4,57 klux 31 W/m
15.01.2015 11:54 9,9 C 9,0 C 8,1 C 73 % 998,9 hPa 0,0 l/m 44,1 km/h (6 Bft) S-SW45 205 0 min 4,91 klux 34 W/m
15.01.2015 11:59 9,8 C 9,0 C 8,1 C 74 % 998,9 hPa 0,0 l/m 43,8 km/h (6 Bft) S-SW45 195 0 min 4,62 klux 32 W/m
15.01.2015 12:04 9,8 C 9,0 C 8,1 C 74 % 998,9 hPa 0,4 l/m 41,1 km/h (6 Bft) S-SW45 200 0 min 4,65 klux 32 W/m
15.01.2015 12:09 9,7 C 8,7 C 8,2 C 75 % 998,9 hPa 0,0 l/m 39,3 km/h (6 Bft) S-SW45 195 0 min 3,37 klux 23 W/m
15.01.2015 12:14 9,5 C 8,6 C 8,1 C 76 % 998,9 hPa 0,0 l/m 34,1 km/h (5 Bft) S-SW45 205 0 min 2,69 klux 18 W/m
15.01.2015 12:19 9,4 C 8,6 C 8,2 C 77 % 998,9 hPa 0,0 l/m 35,9 km/h (5 Bft) S-SW45 195 0 min 3,80 klux 26 W/m
15.01.2015 12:24 9,3 C 8,5 C 8,2 C 77 % 997,9 hPa 0,4 l/m 44,8 km/h (6 Bft) S22.5 190 0 min 3,05 klux 21 W/m
15.01.2015 12:28 9,2 C 8,5 C 8,2 C 79 % 997,9 hPa 0,0 l/m 32,7 km/h (5 Bft) S-SW45 195 0 min 3,42 klux 23 W/m
15.01.2015 12:34 9,2 C 8,5 C 8,2 C 79 % 997,9 hPa 0,4 l/m 40,4 km/h (6 Bft) S-SW22.5 195 0 min 3,55 klux 24 W/m
15.01.2015 12:39 9,1 C 8,4 C 8,2 C 79 % 997,9 hPa 0,0 l/m 32,1 km/h (5 Bft) S-SW45 195 0 min 2,97 klux 20 W/m
15.01.2015 12:44 9,1 C 8,4 C 8,2 C 79 % 997,9 hPa 0,0 l/m 33,3 km/h (5 Bft) S45 190 0 min 3,40 klux 23 W/m
15.01.2015 12:49 9,2 C 8,5 C 8,2 C 78 % 997,9 hPa 0,0 l/m 29,0 km/h (5 Bft) S45 190 0 min 3,40 klux 23 W/m
15.01.2015 12:54 9,3 C 8,5 C 8,2 C 77 % 997,9 hPa 0,4 l/m 37,8 km/h (5 Bft) S-SW45 195 0 min 3,71 klux 25 W/m
15.01.2015 12:58 9,3 C 8,5 C 8,2 C 77 % 997,9 hPa 0,0 l/m 32,5 km/h (5 Bft) S22.5 185 0 min 3,42 klux 23 W/m
15.01.2015 13:04 9,5 C 8,5 C 8,2 C 77 % 997,9 hPa 0,0 l/m 41,4 km/h (6 Bft) S-SW45 195 0 min 3,42 klux 23 W/m
15.01.2015 13:09 9,4 C 8,6 C 8,2 C 77 % 997,9 hPa 0,0 l/m 32,5 km/h (5 Bft) S22.5 185 0 min 3,21 klux 22 W/m
15.01.2015 13:14 9,5 C 8,5 C 8,2 C 77 % 997,9 hPa 0,0 l/m 36,5 km/h (5 Bft) S22.5 190 0 min 2,75 klux 19 W/m
15.01.2015 13:19 9,4 C 8,5 C 8,2 C 78 % 997,9 hPa 0,0 l/m 33,4 km/h (5 Bft) S45 185 0 min 2,67 klux 18 W/m
15.01.2015 13:24 9,4 C 8,4 C 8,2 C 78 % 997,9 hPa 0,0 l/m 33,0 km/h (5 Bft) S22.5 190 0 min 2,36 klux 16 W/m
15.01.2015 13:28 9,4 C 8,4 C 8,2 C 78 % 997,9 hPa 0,4 l/m 31,3 km/h (5 Bft) S-SW22.5 195 0 min 2,36 klux 16 W/m
15.01.2015 13:34 9,4 C 8,5 C 8,2 C 78 % 996,9 hPa 0,0 l/m 31,5 km/h (5 Bft) S45 185 0 min 2,54 klux 17 W/m
15.01.2015 13:39 9,4 C 8,5 C 8,2 C 79 % 996,9 hPa 0,0 l/m 31,1 km/h (5 Bft) S-SW45 195 0 min 2,30 klux 16 W/m
15.01.2015 13:44 9,3 C 8,4 C 8,2 C 79 % 996,9 hPa 0,0 l/m 31,8 km/h (5 Bft) S-SW45 195 0 min 2,33 klux 16 W/m
15.01.2015 13:49 9,2 C 8,4 C 8,2 C 79 % 996,9 hPa 0,0 l/m 31,2 km/h (5 Bft) S-SW45 195 0 min 2,54 klux 17 W/m
15.01.2015 13:54 9,2 C 8,4 C 8,2 C 80 % 996,9 hPa 0,0 l/m 29,4 km/h (5 Bft) S45 185 0 min 2,18 klux 15 W/m
15.01.2015 13:58 9,3 C 8,4 C 8,3 C 79 % 996,9 hPa 0,0 l/m 33,0 km/h (5 Bft) S45 185 0 min 2,24 klux 15 W/m
15.01.2015 14:04 9,2 C 8,5 C 8,3 C 79 % 996,9 hPa 0,4 l/m 31,9 km/h (5 Bft) S22.5 180 0 min 2,99 klux 20 W/m
15.01.2015 14:09 9,2 C 8,5 C 8,2 C 79 % 996,9 hPa 0,0 l/m 31,6 km/h (5 Bft) S45 190 0 min 3,53 klux 24 W/m
15.01.2015 14:14 9,3 C 8,6 C 8,2 C 79 % 996,9 hPa 0,0 l/m 38,5 km/h (6 Bft) S-SW22.5 195 0 min 3,54 klux 24 W/m
15.01.2015 14:19 9,5 C 8,6 C 8,2 C 77 % 996,9 hPa 0,0 l/m 36,4 km/h (5 Bft) S-SW45 205 0 min 3,35 klux 23 W/m
15.01.2015 14:24 9,6 C 8,7 C 8,2 C 77 % 996,9 hPa 0,0 l/m 39,5 km/h (6 Bft) SW22.5 215 0 min 3,24 klux 22 W/m
15.01.2015 14:28 9,6 C 8,7 C 8,3 C 76 % 996,9 hPa 0,0 l/m 42,1 km/h (6 Bft) S-SW45 210 0 min 5,45 klux 37 W/m
15.01.2015 14:34 9,7 C 8,8 C 8,2 C 75 % 996,9 hPa 0,0 l/m 35,9 km/h (5 Bft) S-SW22.5 205 0 min 5,45 klux 37 W/m
15.01.2015 14:39 9,8 C 9,0 C 8,3 C 75 % 996,9 hPa 0,0 l/m 38,9 km/h (6 Bft) S-SW67.5 205 0 min 5,03 klux 34 W/m
15.01.2015 14:44 9,8 C 9,0 C 8,3 C 75 % 996,9 hPa 0,0 l/m 34,4 km/h (5 Bft) S-SW22.5 205 0 min 4,32 klux 30 W/m
15.01.2015 14:49 9,8 C 8,9 C 8,3 C 74 % 996,9 hPa 0,0 l/m 27,6 km/h (5 Bft) S-SW45 195 0 min 4,02 klux 27 W/m
15.01.2015 14:54 9,9 C 8,8 C 8,3 C 74 % 995,9 hPa 0,0 l/m 32,6 km/h (5 Bft) S-SW22.5 195 0 min 2,68 klux 18 W/m
15.01.2015 14:58 10,0 C 8,8 C 8,3 C 74 % 995,9 hPa 0,0 l/m 32,5 km/h (5 Bft) S-SW45 205 0 min 3,26 klux 22 W/m
15.01.2015 15:04 10,0 C 8,8 C 8,3 C 73 % 995,9 hPa 0,0 l/m 34,1 km/h (5 Bft) S-SW45 200 0 min 2,93 klux 20 W/m
15.01.2015 15:09 10,1 C 8,8 C 8,3 C 73 % 995,9 hPa 0,0 l/m 35,8 km/h (5 Bft) S-SW22.5 200 0 min 2,97 klux 20 W/m
15.01.2015 15:14 10,2 C 8,8 C 8,3 C 72 % 995,9 hPa 0,0 l/m 36,2 km/h (5 Bft) S45 190 0 min 2,22 klux 15 W/m
15.01.2015 15:19 10,2 C 9,1 C 8,3 C 72 % 995,9 hPa 0,0 l/m 36,1 km/h (5 Bft) S-SW22.5 205 0 min 2,27 klux 16 W/m
15.01.2015 15:23 10,2 C 9,6 C 8,3 C 72 % 995,9 hPa 0,0 l/m 32,4 km/h (5 Bft) S-SW22.5 205 0 min 1,49 klux 10 W/m
15.01.2015 15:28 10,2 C 9,8 C 8,4 C 72 % 995,9 hPa 0,0 l/m 36,0 km/h (5 Bft) S-SW22.5 205 0 min 1,27 klux 9 W/m
15.01.2015 15:34 10,3 C 9,8 C 8,4 C 70 % 995,9 hPa 0,0 l/m 35,5 km/h (5 Bft) S-SW22.5 195 0 min 1,35 klux 9 W/m
15.01.2015 15:39 10,4 C 9,9 C 8,4 C 70 % 995,9 hPa 0,0 l/m 32,2 km/h (5 Bft) S-SW45 200 0 min 1,06 klux 7 W/m
15.01.2015 15:44 10,3 C 9,9 C 8,5 C 70 % 995,9 hPa 0,0 l/m 39,8 km/h (6 Bft) S-SW45 200 0 min 973 lux 7 W/m
15.01.2015 15:49 10,4 C 9,9 C 8,5 C 70 % 995,9 hPa 0,0 l/m 37,4 km/h (5 Bft) S-SW45 200 0 min 1,13 klux 8 W/m
15.01.2015 15:54 10,4 C 9,9 C 8,5 C 70 % 995,9 hPa 0,0 l/m 38,6 km/h (6 Bft) S-SW45 210 0 min 672 lux 5 W/m
15.01.2015 15:58 10,4 C 9,7 C 8,6 C 70 % 995,9 hPa 0,0 l/m 43,9 km/h (6 Bft) S-SW45 210 0 min 598 lux 4 W/m
15.01.2015 16:04 10,2 C 9,0 C 8,6 C 71 % 995,9 hPa 0,0 l/m 36,3 km/h (5 Bft) S-SW45 205 0 min 633 lux 4 W/m
15.01.2015 16:09 10,2 C 8,8 C 8,6 C 71 % 995,9 hPa 0,0 l/m 38,3 km/h (6 Bft) S-SW45 210 0 min 444 lux 3 W/m
15.01.2015 16:14 10,2 C 8,8 C 8,6 C 71 % 995,9 hPa 0,0 l/m 38,5 km/h (6 Bft) SW45 215 0 min 766 lux 5 W/m
15.01.2015 16:19 10,3 C 9,0 C 8,6 C 71 % 995,9 hPa 0,0 l/m 46,3 km/h (6 Bft) SW45 215 0 min 513 lux 4 W/m
15.01.2015 16:23 10,3 C 9,2 C 8,6 C 71 % 995,9 hPa 0,0 l/m 44,5 km/h (6 Bft) S-SW67.5 210 0 min 401 lux 3 W/m
15.01.2015 16:28 10,3 C 9,7 C 8,6 C 71 % 995,9 hPa 0,0 l/m 43,6 km/h (6 Bft) SW22.5 220 0 min 588 lux 4 W/m
15.01.2015 16:34 10,3 C 9,9 C 8,6 C 71 % 995,9 hPa 0,0 l/m 43,6 km/h (6 Bft) SW22.5 220 0 min 394 lux 3 W/m
15.01.2015 16:39 10,4 C 10,0 C 8,7 C 71 % 995,9 hPa 0,0 l/m 42,8 km/h (6 Bft) SW45 215 0 min 394 lux 3 W/m
15.01.2015 16:44 10,4 C 10,1 C 8,7 C 70 % 995,9 hPa 0,0 l/m 46,9 km/h (6 Bft) S-SW45 210 0 min 394 lux 3 W/m
15.01.2015 16:49 10,4 C 10,0 C 8,7 C 70 % 995,9 hPa 0,0 l/m 36,8 km/h (5 Bft) S-SW45 210 0 min 394 lux 0 W/m
15.01.2015 16:54 10,3 C 10,0 C 8,7 C 71 % 996,9 hPa 0,0 l/m 44,3 km/h (6 Bft) SW45 215 0 min 47 lux 0 W/m
15.01.2015 16:58 10,4 C 10,0 C 8,7 C 71 % 996,9 hPa 0,0 l/m 42,3 km/h (6 Bft) S-SW45 210 0 min 40 lux 0 W/m
15.01.2015 17:04 10,4 C 10,0 C 8,7 C 71 % 995,9 hPa 0,0 l/m 39,1 km/h (6 Bft) SW45 215 0 min 34 lux 0 W/m
15.01.2015 17:09 10,4 C 10,0 C 8,8 C 71 % 995,9 hPa 0,0 l/m 39,1 km/h (6 Bft) SW45 215 0 min 11 lux 0 W/m
15.01.2015 17:14 10,4 C 10,0 C 8,7 C 71 % 996,9 hPa 0,0 l/m 38,6 km/h (6 Bft) SW45 215 0 min 11 lux 0 W/m
15.01.2015 17:19 10,4 C 10,2 C 8,8 C 71 % 996,9 hPa 0,0 l/m 49,8 km/h (7 Bft) SW45 215 0 min 5 lux 0 W/m
15.01.2015 17:23 10,4 C 10,2 C 8,7 C 72 % 996,9 hPa 0,0 l/m 38,1 km/h (6 Bft) SW22.5 220 0 min 1 lux 0 W/m
15.01.2015 17:28 10,4 C 10,3 C 8,8 C 72 % 996,9 hPa 0,0 l/m 47,9 km/h (6 Bft) SW67.5 230 0 min 0 lux 0 W/m
15.01.2015 17:34 10,5 C 10,4 C 8,8 C 71 % 996,9 hPa 0,0 l/m 46,6 km/h (6 Bft) SW67.5 230 0 min 0 lux 0 W/m
15.01.2015 17:39 10,5 C 10,4 C 8,8 C 71 % 996,9 hPa 0,0 l/m 41,6 km/h (6 Bft) SW67.5 225 0 min 0 lux 0 W/m
15.01.2015 17:44 10,5 C 10,3 C 8,8 C 71 % 996,9 hPa 0,0 l/m 47,8 km/h (6 Bft) SW67.5 215 0 min 0 lux 0 W/m
15.01.2015 17:49 10,4 C 10,3 C 8,8 C 72 % 996,9 hPa 0,0 l/m 41,0 km/h (6 Bft) S-SW45 210 0 min 0 lux 0 W/m
15.01.2015 17:54 10,4 C 10,3 C 8,8 C 72 % 996,9 hPa 0,0 l/m 43,4 km/h (6 Bft) SW22.5 215 0 min 0 lux 0 W/m
15.01.2015 17:58 10,5 C 10,3 C 8,8 C 70 % 996,9 hPa 0,0 l/m 41,5 km/h (6 Bft) SW67.5 215 0 min 0 lux 0 W/m
15.01.2015 18:04 10,5 C 10,3 C 8,9 C 70 % 996,9 hPa 0,0 l/m 49,3 km/h (7 Bft) SW22.5 225 0 min 0 lux 0 W/m
15.01.2015 18:09 10,5 C 10,1 C 8,9 C 71 % 996,9 hPa 0,0 l/m 47,2 km/h (6 Bft) SW22.5 215 0 min 0 lux 0 W/m
15.01.2015 18:14 10,2 C 9,8 C 8,9 C 72 % 996,9 hPa 0,0 l/m 38,7 km/h (6 Bft) SW45 220 0 min 0 lux 0 W/m
15.01.2015 18:19 10,2 C 9,9 C 8,9 C 73 % 996,9 hPa 0,0 l/m 46,5 km/h (6 Bft) SW67.5 215 0 min 0 lux 0 W/m
15.01.2015 18:23 10,2 C 9,9 C 8,9 C 73 % 996,9 hPa 0,0 l/m 38,5 km/h (6 Bft) SW45 225 0 min 0 lux 0 W/m
15.01.2015 18:28 10,2 C 9,9 C 8,9 C 72 % 996,9 hPa 0,0 l/m 41,6 km/h (6 Bft) SW67.5 220 0 min 0 lux 0 W/m
15.01.2015 18:34 10,2 C 9,8 C 8,9 C 72 % 996,9 hPa 0,0 l/m 39,8 km/h (6 Bft) SW67.5 225 0 min 0 lux 0 W/m
15.01.2015 18:39 10,1 C 9,8 C 9,0 C 73 % 996,9 hPa 0,0 l/m 36,7 km/h (5 Bft) SW45 230 0 min 0 lux 0 W/m
15.01.2015 18:44 10,1 C 9,8 C 9,0 C 73 % 996,9 hPa 0,0 l/m 42,0 km/h (6 Bft) SW67.5 215 0 min 0 lux 0 W/m
15.01.2015 18:49 10,0 C 9,6 C 9,0 C 74 % 996,9 hPa 0,0 l/m 38,1 km/h (6 Bft) SW67.5 220 0 min 0 lux 0 W/m
15.01.2015 18:54 9,9 C 9,4 C 9,0 C 76 % 996,9 hPa 0,0 l/m 40,6 km/h (6 Bft) S-SW67.5 200 0 min 0 lux 0 W/m
15.01.2015 18:58 9,7 C 9,1 C 9,0 C 77 % 996,9 hPa 0,0 l/m 40,5 km/h (6 Bft) W-SW45 245 0 min 0 lux 0 W/m
15.01.2015 19:04 8,6 C 8,0 C 9,0 C 79 % 997,9 hPa 0,0 l/m 47,1 km/h (6 Bft) W-SW45 250 0 min 0 lux 0 W/m
15.01.2015 19:09 8,0 C 7,6 C 9,0 C 82 % 998,0 hPa 0,0 l/m 45,6 km/h (6 Bft) W67.5 260 0 min 0 lux 0 W/m
15.01.2015 19:14 7,9 C 7,4 C 9,0 C 82 % 998,0 hPa 0,0 l/m 46,6 km/h (6 Bft) W-SW22.5 245 0 min 0 lux 0 W/m
15.01.2015 19:19 7,8 C 7,3 C 9,0 C 84 % 998,0 hPa 0,0 l/m 36,0 km/h (5 Bft) W-SW45 240 0 min 0 lux 0 W/m
15.01.2015 19:23 7,8 C 7,3 C 9,0 C 84 % 998,0 hPa 0,4 l/m 33,5 km/h (5 Bft) W-SW45 240 0 min 0 lux 0 W/m
15.01.2015 19:28 7,7 C 7,4 C 9,0 C 85 % 998,0 hPa 0,4 l/m 35,1 km/h (5 Bft) W-SW45 245 0 min 0 lux 0 W/m
15.01.2015 19:34 7,9 C 7,6 C 8,9 C 86 % 998,0 hPa 0,0 l/m 33,2 km/h (5 Bft) SW67.5 230 0 min 0 lux 0 W/m
15.01.2015 19:39 8,0 C 7,6 C 8,9 C 86 % 998,0 hPa 0,0 l/m 32,2 km/h (5 Bft) SW45 215 0 min 0 lux 0 W/m
15.01.2015 19:44 8,2 C 7,6 C 8,9 C 85 % 998,0 hPa 0,0 l/m 33,3 km/h (5 Bft) S-SW67.5 205 0 min 0 lux 0 W/m
15.01.2015 19:49 8,2 C 7,6 C 8,9 C 84 % 998,0 hPa 0,0 l/m 35,3 km/h (5 Bft) SW22.5 215 0 min 0 lux 0 W/m
15.01.2015 19:54 8,4 C 7,8 C 8,9 C 84 % 998,0 hPa 0,0 l/m 30,2 km/h (5 Bft) SW45 215 0 min 0 lux 0 W/m
15.01.2015 19:58 8,5 C 7,7 C 8,9 C 84 % 998,0 hPa 0,0 l/m 29,3 km/h (5 Bft) SW45 220 0 min 0 lux 0 W/m
15.01.2015 20:04 8,6 C 7,7 C 8,9 C 83 % 997,9 hPa 0,0 l/m 29,7 km/h (5 Bft) S-SW45 210 0 min 0 lux 0 W/m
15.01.2015 20:09 8,7 C 7,7 C 8,8 C 83 % 997,9 hPa 0,0 l/m 28,1 km/h (5 Bft) SW67.5 215 0 min 0 lux 0 W/m
15.01.2015 20:14 8,7 C 7,6 C 8,8 C 82 % 997,9 hPa 0,0 l/m 32,1 km/h (5 Bft) SW45 215 0 min 0 lux 0 W/m
15.01.2015 20:19 8,7 C 7,7 C 8,9 C 82 % 997,9 hPa 0,0 l/m 30,9 km/h (5 Bft) S-SW67.5 210 0 min 0 lux 0 W/m
15.01.2015 20:23 8,6 C 7,5 C 8,8 C 82 % 997,9 hPa 0,0 l/m 30,3 km/h (5 Bft) SW67.5 220 0 min 0 lux 0 W/m
15.01.2015 20:29 8,6 C 7,4 C 8,8 C 81 % 997,9 hPa 0,0 l/m 24,1 km/h (4 Bft) SW67.5 215 0 min 0 lux 0 W/m
15.01.2015 20:34 8,6 C 7,5 C 8,8 C 81 % 997,9 hPa 0,0 l/m 36,5 km/h (5 Bft) SW67.5 220 0 min 0 lux 0 W/m
15.01.2015 20:39 8,6 C 7,5 C 8,8 C 80 % 997,9 hPa 0,0 l/m 31,7 km/h (5 Bft) SW45 225 0 min 0 lux 0 W/m
15.01.2015 20:44 8,6 C 7,4 C 8,8 C 80 % 999,0 hPa 0,0 l/m 25,0 km/h (4 Bft) S-SW22.5 210 0 min 0 lux 0 W/m
15.01.2015 20:49 8,5 C 7,4 C 8,8 C 80 % 999,0 hPa 0,0 l/m 28,6 km/h (5 Bft) SW67.5 220 0 min 0 lux 0 W/m
15.01.2015 20:53 8,5 C 7,5 C 8,8 C 80 % 999,0 hPa 0,0 l/m 26,3 km/h (4 Bft) SW45 215 0 min 0 lux 0 W/m
15.01.2015 20:58 8,5 C 7,5 C 8,8 C 80 % 999,0 hPa 0,0 l/m 25,1 km/h (4 Bft) S-SW22.5 205 0 min 0 lux 0 W/m
15.01.2015 21:04 8,5 C 7,5 C 8,8 C 80 % 999,0 hPa 0,0 l/m 29,6 km/h (5 Bft) S-SW45 205 0 min 0 lux 0 W/m
15.01.2015 21:09 8,6 C 7,7 C 8,8 C 79 % 999,0 hPa 0,0 l/m 24,0 km/h (4 Bft) SW22.5 215 0 min 0 lux 0 W/m
15.01.2015 21:14 8,4 C 7,6 C 8,8 C 81 % 999,0 hPa 0,0 l/m 23,1 km/h (4 Bft) SW67.5 215 0 min 0 lux 0 W/m
15.01.2015 21:19 7,4 C 6,9 C 8,8 C 81 % 999,0 hPa 0,4 l/m 54,4 km/h (7 Bft) W45 265 0 min 0 lux 0 W/m
15.01.2015 21:23 7,2 C 6,7 C 8,8 C 82 % 1000,0 hPa 0,0 l/m 56,6 km/h (7 Bft) W-SW45 255 0 min 0 lux 0 W/m
15.01.2015 21:29 7,0 C 6,5 C 8,7 C 82 % 1000,0 hPa 0,0 l/m 42,7 km/h (6 Bft) W-SW22.5 250 0 min 0 lux 0 W/m
15.01.2015 21:34 6,9 C 6,3 C 8,7 C 82 % 1000,0 hPa 0,0 l/m 36,0 km/h (5 Bft) SW67.5 230 0 min 0 lux 0 W/m
15.01.2015 21:39 6,8 C 6,2 C 8,7 C 81 % 1000,0 hPa 0,0 l/m 39,7 km/h (6 Bft) W-SW45 250 0 min 0 lux 0 W/m
15.01.2015 21:44 6,8 C 6,0 C 8,7 C 81 % 999,0 hPa 0,0 l/m 36,4 km/h (5 Bft) SW45 235 0 min 0 lux 0 W/m
15.01.2015 21:49 6,8 C 5,9 C 8,6 C 81 % 999,0 hPa 0,0 l/m 32,5 km/h (5 Bft) SW45 220 0 min 0 lux 0 W/m
15.01.2015 21:53 6,9 C 5,9 C 8,6 C 81 % 999,0 hPa 0,0 l/m 29,5 km/h (5 Bft) SW45 225 0 min 0 lux 0 W/m
15.01.2015 21:58 6,9 C 6,0 C 8,6 C 81 % 999,0 hPa 0,0 l/m 31,1 km/h (5 Bft) SW67.5 230 0 min 0 lux 0 W/m
15.01.2015 22:04 6,9 C 6,0 C 8,6 C 80 % 999,0 hPa 0,0 l/m 26,7 km/h (4 Bft) SW67.5 215 0 min 0 lux 0 W/m
15.01.2015 22:09 7,0 C 6,0 C 8,6 C 80 % 1000,0 hPa 0,0 l/m 27,7 km/h (5 Bft) SW67.5 230 0 min 0 lux 0 W/m
15.01.2015 22:14 7,0 C 6,0 C 8,5 C 80 % 1000,0 hPa 0,0 l/m 31,5 km/h (5 Bft) SW22.5 225 0 min 0 lux 0 W/m
15.01.2015 22:19 7,0 C 5,9 C 8,5 C 79 % 1000,0 hPa 0,0 l/m 35,6 km/h (5 Bft) SW45 215 0 min 0 lux 0 W/m
15.01.2015 22:23 7,2 C 6,0 C 8,5 C 78 % 1000,0 hPa 0,0 l/m 32,4 km/h (5 Bft) SW67.5 220 0 min 0 lux 0 W/m
15.01.2015 22:29 7,1 C 5,9 C 8,5 C 78 % 1000,0 hPa 0,0 l/m 25,5 km/h (4 Bft) SW67.5 215 0 min 0 lux 0 W/m
15.01.2015 22:34 7,1 C 5,8 C 8,5 C 78 % 1000,0 hPa 0,0 l/m 30,2 km/h (5 Bft) SW67.5 220 0 min 0 lux 0 W/m
15.01.2015 22:39 7,0 C 5,8 C 8,5 C 78 % 1000,0 hPa 0,0 l/m 27,0 km/h (5 Bft) SW45 215 0 min 0 lux 0 W/m
15.01.2015 22:44 7,1 C 5,8 C 8,4 C 77 % 1000,0 hPa 0,0 l/m 32,0 km/h (5 Bft) SW67.5 230 0 min 0 lux 0 W/m
15.01.2015 22:49 7,1 C 5,9 C 8,4 C 77 % 1000,0 hPa 0,0 l/m 32,1 km/h (5 Bft) SW67.5 220 0 min 0 lux 0 W/m
15.01.2015 22:53 7,1 C 5,7 C 8,4 C 77 % 1000,0 hPa 0,0 l/m 26,8 km/h (4 Bft) SW45 215 0 min 0 lux 0 W/m
15.01.2015 22:58 7,0 C 5,8 C 8,4 C 77 % 1000,0 hPa 0,0 l/m 35,1 km/h (5 Bft) SW45 230 0 min 0 lux 0 W/m
15.01.2015 23:04 7,2 C 5,8 C 8,3 C 76 % 1001,0 hPa 0,0 l/m 28,5 km/h (5 Bft) SW45 225 0 min 0 lux 0 W/m
15.01.2015 23:09 7,2 C 5,7 C 8,3 C 76 % 1001,0 hPa 0,0 l/m 29,5 km/h (5 Bft) SW45 225 0 min 0 lux 0 W/m
15.01.2015 23:14 7,1 C 5,6 C 8,3 C 76 % 1001,0 hPa 0,0 l/m 30,4 km/h (5 Bft) SW22.5 225 0 min 0 lux 0 W/m
15.01.2015 23:18 7,0 C 5,5 C 8,3 C 77 % 1001,0 hPa 0,0 l/m 31,3 km/h (5 Bft) SW45 215 0 min 0 lux 0 W/m
15.01.2015 23:24 6,9 C 5,4 C 8,3 C 77 % 1001,0 hPa 0,0 l/m 31,3 km/h (5 Bft) SW45 215 0 min 0 lux 0 W/m
15.01.2015 23:29 7,0 C 5,4 C 8,3 C 77 % 1001,0 hPa 0,0 l/m 29,0 km/h (5 Bft) SW67.5 235 0 min 0 lux 0 W/m
15.01.2015 23:34 7,0 C 5,5 C 8,3 C 77 % 1001,0 hPa 0,0 l/m 29,1 km/h (5 Bft) SW67.5 230 0 min 0 lux 0 W/m
15.01.2015 23:39 7,0 C 5,4 C 8,3 C 78 % 1001,0 hPa 0,0 l/m 26,8 km/h (4 Bft) SW45 215 0 min 0 lux 0 W/m
15.01.2015 23:44 7,0 C 5,4 C 8,3 C 78 % 1001,0 hPa 0,0 l/m 26,8 km/h (4 Bft) SW45 215 0 min 0 lux 0 W/m
15.01.2015 23:49 7,0 C 5,4 C 8,2 C 78 % 1001,0 hPa 0,0 l/m 29,6 km/h (5 Bft) SW45 215 0 min 200 klux 0 W/m
15.01.2015 23:53 7,0 C 5,4 C 8,3 C 78 % 1001,0 hPa 0,0 l/m 29,7 km/h (5 Bft) SW45 215 0 min 0 lux 0 W/m
15.01.2015 23:59 7,0 C 5,6 C 8,3 C 78 % 1001,0 hPa 0,0 l/m 35,5 km/h (5 Bft) SW67.5 225 0 min 0 lux 0 W/m
_ Min-Zeit 00:04 00:08 00:54 10:54 15:39 - 00:19 - - - - -
Minimum _ 3,8 C 1,7 C 6,8 C 70 % 995,9 hPa - 19,7 km/h (3 Bft) - - - - -
_ Max-Zeit 17:34 17:34 18:39 05:19 00:04 04:19 21:23 - - 00:04 23:49 14:28
Maximum _ 10,5 C 10,4 C 9,0 C 86 % 1011,1 hPa 0,4 l/m 56,6 km/h
W-SW (7 Bft)
- - 0 min 200 klux 37 W/m
Durchschnitt _ 7,9 C 6,9 C 7,9 C 78 % 1000,5 hPa #4,7 l/m 33,6 km/h (5 Bft) S - #0 min. 1,56 klux 17 W/m